Weather History for KRND - March, 2014

Change the Weather History Date:

Wednesday, March 26, 2014

  Actual Average Record
Temperature  
Mean Temperature 58 °F -  
Max Temperature 62 °F 71 °F 86 °F (2008)
Min Temperature 53 °F 52 °F 37 °F (2013)
Degree Days  
Heating Degree Days 8    
Growing Degree Days 8 (Base 50)    
Moisture  
Dew Point 52 °F    
Average Humidity 80    
Maximum Humidity 94    
Minimum Humidity 64    
Precipitation  
Precipitation 0.07 in - - ()
Sea Level Pressure  
Sea Level Pressure 30.06 in    
Wind  
Wind Speed 13 mph (SSE)    
Max Wind Speed 32 mph    
Max Gust Speed 50 mph    
Visibility 9 miles    
Events Rain    
Averages and records for this station are not official NWS values.
T = Trace of Precipitation, MM = Missing Value Source: NWS Daily Summary

Daily Weather History Graph

Daily Weather History Graph

Search for Another Location

Airport or City:

Trip Planner

Search our weather history database for the weather conditions in past years. The results will help you decide how hot, cold, wet, or windy it might be!

Date:

Astronomy

Mar. 26, 2014 Rise Set
Actual Time 7:29 AM CDT 7:48 PM CDT
Civil Twilight 7:05 AM CDT 8:11 PM CDT
Nautical Twilight 6:38 AM CDT 8:39 PM CDT
Astronomical Twilight 6:09 AM CDT 9:08 PM CDT
Moon 4:20 AM CDT (3/26) 3:45 PM CDT (3/26)
Length of Visible Light 13h 06m
Length of Day
12h 18m
Waning Crescent, 21% of the Moon is Illuminated
Mar 26
Waning Crescent
Mar 30
New
Apr 7
First Quarter
Apr 15
Full
Apr 22
Last Quarter

Hourly Weather History & Observations

Time (CDT) Temp. Dew Point Humidity Pressure Visibility Wind Dir Wind Speed Gust Speed Precip Events Conditions
12:58 AM 55.0 °F 43.7 °F 66% 30.22 in 10.0 mi ESE 3.5 mph - N/A   Mostly Cloudy
1:58 AM 56.1 °F 44.2 °F 64% 30.19 in 10.0 mi SSE 10.4 mph - N/A   Partly Cloudy
2:58 AM 56.5 °F 45.1 °F 66% 30.18 in 10.0 mi South 9.2 mph - N/A   Clear
3:58 AM 55.6 °F 46.6 °F 72% 30.14 in 10.0 mi SSE 10.4 mph - N/A   Clear
4:58 AM 55.4 °F 46.4 °F 72% 30.12 in 10.0 mi SSE 9.2 mph - 0.00 in   Clear
5:58 AM 53.8 °F 45.1 °F 73% 30.12 in 10.0 mi SSE 8.1 mph - N/A   Mostly Cloudy
6:58 AM 54.9 °F 45.9 °F 72% 30.14 in 10.0 mi SSW 5.8 mph - N/A   Mostly Cloudy
7:58 AM 55.8 °F 45.3 °F 68% 30.15 in 10.0 mi South 9.2 mph - N/A   Mostly Cloudy
8:39 AM 55.4 °F 46.4 °F 72% 30.12 in 10.0 mi South 13.8 mph - N/A Rain Light Rain
8:58 AM 54.5 °F 47.8 °F 78% 30.15 in 10.0 mi South 8.1 mph - 0.00 in   Light Drizzle
9:09 AM 55.4 °F 48.2 °F 77% 30.15 in 10.0 mi South 10.4 mph - N/A   Mostly Cloudy
9:40 AM 55.4 °F 50.0 °F 82% 30.16 in 10.0 mi South 10.4 mph - N/A Rain Light Rain
9:58 AM 55.8 °F 50.5 °F 83% 30.15 in 10.0 mi SSE 12.7 mph - 0.00 in Rain Light Rain
10:58 AM 55.0 °F 51.4 °F 88% 30.14 in 6.0 mi South 19.6 mph 25.3 mph 0.01 in Rain Light Rain
11:32 AM 55.4 °F 51.8 °F 88% 30.04 in 7.0 mi SSE 32.2 mph 41.4 mph N/A   Overcast
11:36 AM 55.4 °F 51.8 °F 88% 30.06 in 6.0 mi SSE 29.9 mph 41.4 mph N/A Rain Light Rain
11:46 AM 57.2 °F 53.6 °F 88% 30.08 in 10.0 mi South 29.9 mph 46.0 mph N/A   Mostly Cloudy
11:58 AM 57.0 °F 52.9 °F 86% 30.09 in 10.0 mi SSE 26.5 mph 38.0 mph 0.02 in   Mostly Cloudy
12:31 PM 57.2 °F 51.8 °F 82% 30.10 in 10.0 mi SSE 19.6 mph 28.8 mph N/A   Light Drizzle
12:56 PM 55.4 °F 51.8 °F 88% 30.09 in 4.0 mi SSE 15.0 mph - N/A Rain Rain
12:59 PM 55.4 °F 51.8 °F 88% 30.10 in 4.0 mi SSE 13.8 mph - 0.01 in Rain Rain
1:01 PM 55.4 °F 53.6 °F 94% 30.11 in 4.0 mi South 12.7 mph - N/A Rain Light Rain
1:06 PM 55.4 °F 51.8 °F 88% 30.10 in 6.0 mi South 11.5 mph - N/A Rain Light Rain
1:35 PM 55.4 °F 51.8 °F 88% 29.96 in 5.0 mi SSE 31.1 mph 49.5 mph N/A Rain Light Rain
1:45 PM 55.4 °F 51.8 °F 88% 30.00 in 10.0 mi SSE 28.8 mph 41.4 mph N/A Rain Light Rain
1:53 PM 57.2 °F 53.6 °F 88% 30.03 in 10.0 mi SSE 16.1 mph 38.0 mph N/A   Mostly Cloudy
1:58 PM 58.3 °F 54.0 °F 86% 30.03 in 10.0 mi SSE 13.8 mph 36.8 mph 0.03 in   Mostly Cloudy
2:06 PM 59.0 °F 53.6 °F 82% 30.07 in 10.0 mi SW 10.4 mph - N/A   Mostly Cloudy
2:58 PM 61.3 °F 51.8 °F 71% 30.05 in 10.0 mi SSE 18.4 mph 27.6 mph N/A   Mostly Cloudy
3:23 PM 62.6 °F 51.8 °F 68% 30.04 in 10.0 mi SSE 18.4 mph 29.9 mph N/A   Overcast
3:28 PM 62.6 °F 51.8 °F 68% 30.03 in 10.0 mi SSE 19.6 mph 26.5 mph N/A   Mostly Cloudy
3:33 PM 62.6 °F 51.8 °F 68% 30.03 in 10.0 mi SSE 18.4 mph - N/A   Mostly Cloudy
3:53 PM 62.6 °F 51.8 °F 68% 30.02 in 10.0 mi SSE 18.4 mph 26.5 mph N/A   Overcast
3:58 PM 62.4 °F 52.3 °F 70% 30.01 in 10.0 mi SSE 18.4 mph 27.6 mph N/A   Overcast
4:13 PM 62.6 °F 53.6 °F 72% 30.01 in 10.0 mi SSE 19.6 mph 25.3 mph N/A   Overcast
4:58 PM 61.7 °F 53.8 °F 75% 30.00 in 10.0 mi SSE 21.9 mph 28.8 mph N/A   Overcast
5:03 PM 62.6 °F 53.6 °F 72% 30.00 in 10.0 mi South 17.3 mph 28.8 mph N/A   Overcast
5:55 PM 60.8 °F 55.4 °F 82% 30.00 in 10.0 mi South 17.3 mph 21.9 mph N/A   Overcast
5:58 PM 61.3 °F 54.9 °F 79% 30.00 in 10.0 mi South 17.3 mph 21.9 mph N/A   Overcast
6:03 PM 60.8 °F 55.4 °F 82% 30.00 in 10.0 mi South 11.5 mph - N/A   Overcast
6:58 PM 60.3 °F 55.8 °F 85% 29.99 in 10.0 mi SSE 12.7 mph - N/A   Overcast
7:58 PM 61.0 °F 55.9 °F 83% 29.99 in 10.0 mi South 10.4 mph - N/A   Overcast
8:13 PM 60.8 °F 55.4 °F 82% 29.99 in 10.0 mi South 10.4 mph - N/A   Overcast
8:48 PM 60.8 °F 55.4 °F 82% 29.99 in 10.0 mi SSE 15.0 mph - N/A   Overcast
8:53 PM 60.8 °F 55.4 °F 82% 29.99 in 10.0 mi SSE 16.1 mph 25.3 mph N/A   Overcast
8:58 PM 61.2 °F 56.1 °F 83% 29.98 in 10.0 mi SSE 12.7 mph 25.3 mph N/A   Overcast
9:08 PM 60.8 °F 55.4 °F 82% 29.98 in 10.0 mi SSE 16.1 mph - N/A   Overcast
9:48 PM 60.8 °F 55.4 °F 82% 29.98 in 10.0 mi SSE 13.8 mph - N/A   Overcast
9:58 PM 61.3 °F 56.3 °F 83% 29.98 in 10.0 mi SSE 17.3 mph 24.2 mph N/A   Overcast
10:58 PM 61.3 °F 56.8 °F 85% 29.98 in 10.0 mi SSE 13.8 mph - N/A   Overcast
11:03 PM 60.8 °F 57.2 °F 88% 29.98 in 10.0 mi SSE 13.8 mph - N/A   Overcast
11:13 PM 60.8 °F 57.2 °F 88% 29.98 in 10.0 mi SSE 15.0 mph - N/A   Overcast
11:58 PM 61.0 °F 57.9 °F 90% 29.96 in 10.0 mi South 12.7 mph 20.7 mph N/A   Overcast